Location: Pic du Midi - T1M
(42.9366°N, 0.1426°E)
Time: 23:17:52
(UTC+01:00)

DX 1 - Pass Details

Date: 22 September 2021
Orbit: 618 x 630 km, 98.4° (Epoch: 17 October)

Event Time Altitude Azimuth Distance (km) Brightness Sun altitude
Rises 20:06:36 0° 26° (NNE) 2,896 ? -13.5°
Reaches altitude 10° 20:09:09 10° 41° (NE) 1,985 ? -14.0°
Enters shadow 20:12:31 24° 92° (E) 1,300 ? -14.6°
